Location: Hermaringen
(48.5952°N, 10.2585°E)
Time: 05:58:44
(UTC+00:00)

Altair - Pass Details

Date: 19 February 2026
Orbit: 1502 x 1682 km, 47.2° (Epoch: 9 March)

Event Time Altitude Azimuth Distance (km) Brightness Sun altitude
Rises 02:33:24 0° 206° (SSW) 4,622 - -37.2°
Reaches altitude 10° 02:36:47 10° 197° (SSW) 3,645 - -36.7°
Exits shadow 02:42:41 30° 159° (SSE) 2,429 8.4 -35.8°
Maximum altitude 02:44:36 33° 138° (SE) 2,337 8.5 -35.6°
Drops below altitude 10° 02:52:33 10° 79° (E) 3,722 10.3 -34.4°
Sets 02:56:00 0° 70° (ENE) 4,732 11.1 -33.8°
